Flag for Cyprus Weather past 2 weeks in Larnaca, Cyprus

Now
73 °F

Passing clouds.


Feels Like: 76 °F
Forecast: 57 / 83 °F
Wind: 5 mph from East

Location: Larnaca Airport


UV Index: 7 (High)

Visibility: N/A


Pressure: 30.07 "Hg

Humidity: 65%

Dew point: 61 °F

Location of LarnacaLocation

Historic Weather in Larnaca

°F

Larnaca temperature yesterday

Maximum temperature yesterday: 75 °F (at 2:00 PM)
Minimum temperature yesterday: 55 °F (at 5:30 AM)
Average temperature yesterday: 66 °F

Past Weeks' High & Low Weather Summary

 TemperatureHumidityPressure
High81 °F (Apr 17, 2:30 PM)94% (Apr 10, 4:00 AM)30.09 "Hg (Apr 10, 4:00 AM)
Low50 °F (Apr 11, 5:00 AM)32% (Apr 20, 11:00 AM)29.74 "Hg (Apr 17, 3:00 PM)
Average65 °F67%29.95 "Hg
* Reported Apr 8 10:00 AM — Apr 23 10:00 AM, Larnaca, Weather by CustomWeather, © 2014

Note: Actual official high and low records may vary slightly from our data, if they occured in-between our weather recording intervals... More about our weather records

Advertising

Historic Weather Conditions — Data for Previous 24 hours

 ConditionsComfort  
Time TempWeatherWind HumidityBarometerVisibility
10:00 AM
Apr 23
72 °FPassing clouds.6 mph65%30.07 "HgN/A
9:30 AM70 °FPassing clouds.7 mph73%30.07 "HgN/A
9:00 AM70 °FSunny.8 mph69%30.07 "Hg10 mi
8:30 AM70 °FSunny.8 mph64%30.07 "Hg10 mi
8:00 AM66 °FPassing clouds.7 mph68%30.07 "HgN/A
7:30 AM63 °FPassing clouds.6 mph77%30.07 "HgN/A
7:00 AM59 °FClear.6 mph82%30.04 "Hg10 mi
6:30 AM57 °FClear.6 mph88%30.04 "Hg10 mi
6:00 AM57 °FClear.5 mph82%30.04 "Hg10 mi
5:30 AM59 °FClear.5 mph82%30.04 "Hg10 mi
5:00 AM57 °FClear.5 mph88%30.04 "Hg10 mi
4:30 AM59 °FPassing clouds.3 mph82%30.04 "HgN/A
4:00 AM59 °FClear.2 mph88%30.04 "Hg10 mi
3:30 AM59 °FClear.2 mph94%30.04 "Hg10 mi
3:00 AM61 °FClear.1 mph88%30.04 "Hg10 mi
2:30 AM59 °FClear.3 mph94%30.04 "Hg10 mi
2:00 AM63 °FClear.2 mph94%30.07 "Hg10 mi
1:30 AM61 °FClear.No wind94%30.04 "Hg10 mi
1:00 AM63 °FClear.2 mph83%30.07 "Hg10 mi
12:30 AM63 °FClear.No wind77%30.04 "Hg10 mi
12:00 AM63 °FClear.No wind77%30.04 "Hg10 mi
11:30 PM
Apr 22
63 °FClear.2 mph83%30.04 "Hg10 mi
11:00 PM64 °FPassing clouds.3 mph88%30.07 "HgN/A
10:30 PM66 °FClear.3 mph78%30.04 "Hg10 mi
10:00 PM66 °FClear.6 mph88%30.07 "Hg10 mi
9:30 PM66 °FPassing clouds.3 mph88%30.04 "HgN/A
9:00 PM66 °FClear.8 mph83%30.04 "Hg10 mi
8:30 PM68 °FClear.8 mph78%30.04 "Hg10 mi
8:00 PM68 °FSunny.14 mph78%30.01 "Hg10 mi
7:30 PM68 °FSunny.14 mph73%30.01 "Hg10 mi
7:00 PM70 °FSunny.16 mph73%29.98 "Hg10 mi
6:30 PM72 °FSunny.15 mph65%29.98 "Hg10 mi
6:00 PM72 °FPassing clouds.15 mph61%29.98 "HgN/A
5:30 PM73 °FPassing clouds.14 mph47%30.01 "HgN/A
5:00 PM73 °FPassing clouds.14 mph50%30.01 "HgN/A
4:30 PM75 °FPassing clouds.13 mph50%30.01 "HgN/A
4:00 PM75 °FPassing clouds.13 mph50%30.01 "HgN/A
3:30 PM73 °FPassing clouds.15 mph57%30.01 "HgN/A
3:00 PM75 °FPassing clouds.13 mph54%30.01 "HgN/A
2:30 PM75 °FPassing clouds.12 mph47%30.01 "HgN/A
2:00 PM75 °FPassing clouds.10 mph50%30.04 "HgN/A
1:30 PM73 °FPassing clouds.12 mph61%30.04 "HgN/A
1:00 PM72 °FPassing clouds.12 mph65%30.04 "HgN/A
12:30 PM72 °FPassing clouds.10 mph65%30.04 "HgN/A
12:00 PM72 °FPassing clouds.8 mph61%30.04 "HgN/A
11:30 AM72 °FPassing clouds.7 mph65%30.07 "HgN/A
11:00 AM72 °FPassing clouds.7 mph69%30.07 "HgN/A
10:30 AM70 °FPassing clouds.6 mph69%30.07 "HgN/A
10:00 AM70 °FPassing clouds.5 mph69%30.07 "HgN/A
Weather by CustomWeather, © 2014

See weather overview